Change the Weather History Date:

Tuesday, March 5, 2013

  Actual Average Record
Temperature  
Mean Temperature 71 °F -  
Max Temperature 78 °F 81 °F 85 °F (1977)
Min Temperature 64 °F 61 °F 57 °F (1962)
Cooling Degree Days 6    
Growing Degree Days 21 (Base 50)    
Moisture  
Dew Point 55 °F    
Average Humidity 57    
Maximum Humidity 78    
Minimum Humidity 43    
Precipitation  
Precipitation 0.01 in - - ()
Sea Level Pressure  
Sea Level Pressure 30.13 in    
Wind  
Wind Speed 5 mph (NNE)    
Max Wind Speed 10 mph    
Max Gust Speed -    
Visibility 10 miles    
Events      
Averages and records for this station are not official NWS values.
T = Trace of Precipitation, MM = Missing Value Source: NWS Daily Summary

Daily Weather History Graph

Daily Weather History Graph

Search for Another Location

Airport or City:

Trip Planner

Search our weather history database for the weather conditions in past years. The results will help you decide how hot, cold, wet, or windy it might be!

Date:

Astronomy

Mar. 05, 2013 Rise Set
Actual Time 6:56 AM HST 6:44 PM HST
Civil Twilight 6:33 AM HST 7:07 PM HST
Nautical Twilight 6:08 AM HST 7:33 PM HST
Astronomical Twilight 5:42 AM HST 7:59 PM HST
Moon 1:49 AM HST (3/5) 1:06 PM HST (3/5)
Length of Visible Light 12h 33m
Length of Day
11h 48m
Last Quarter, 39% of the Moon is Illuminated
Mar 5
Last Quarter
Mar 11
New
Mar 19
First Quarter
Mar 26
Full
Apr 2
Last Quarter

Hourly Weather History & Observations

Time (HST) Temp. Dew Point Humidity Pressure Visibility Wind Dir Wind Speed Gust Speed Precip Events Conditions
12:56 AM 64.9 °F 53.1 °F 65% 30.14 in 10.0 mi East 5.8 mph - N/A   Clear
1:56 AM 64.9 °F 50.0 °F 58% 30.14 in 10.0 mi East 4.6 mph - N/A   Clear
2:56 AM 64.9 °F 51.1 °F 61% 30.13 in 10.0 mi Calm Calm - N/A   Clear
3:56 AM 64.0 °F 52.0 °F 65% 30.12 in 10.0 mi ENE 5.8 mph - N/A   Clear
4:56 AM 64.0 °F 53.1 °F 67% 30.12 in 10.0 mi East 4.6 mph - N/A   Clear
5:56 AM 64.9 °F 55.9 °F 73% 30.13 in 10.0 mi East 5.8 mph - N/A   Clear
6:56 AM 64.0 °F 57.0 °F 78% 30.14 in 10.0 mi East 4.6 mph - N/A   Partly Cloudy
7:56 AM 68.0 °F 55.9 °F 65% 30.17 in 10.0 mi East 4.6 mph - N/A   Clear
8:56 AM 73.0 °F 55.9 °F 55% 30.18 in 10.0 mi Calm Calm - N/A   Clear
9:56 AM 73.9 °F 55.9 °F 53% 30.18 in 10.0 mi West 5.8 mph - N/A   Mostly Cloudy
10:56 AM 75.0 °F 55.9 °F 51% 30.17 in 10.0 mi WNW 8.1 mph - N/A   Scattered Clouds
11:56 AM 77.0 °F 55.0 °F 47% 30.15 in 10.0 mi WNW 9.2 mph - N/A   Clear
12:56 PM 78.1 °F 54.0 °F 43% 30.13 in 10.0 mi NW 10.4 mph - N/A   Partly Cloudy
1:56 PM 78.1 °F 55.0 °F 45% 30.12 in 10.0 mi NW 9.2 mph - N/A   Scattered Clouds
2:56 PM 78.1 °F 57.9 °F 50% 30.09 in 10.0 mi WNW 9.2 mph - 0.01 in   Mostly Cloudy
3:56 PM 78.1 °F 55.9 °F 46% 30.07 in 10.0 mi WSW 6.9 mph - N/A   Mostly Cloudy
4:56 PM 77.0 °F 55.9 °F 48% 30.09 in 10.0 mi West 6.9 mph - N/A   Overcast
5:56 PM 75.9 °F 57.0 °F 52% 30.10 in 10.0 mi NW 5.8 mph - N/A   Clear
6:56 PM 75.0 °F 57.0 °F 53% 30.12 in 10.0 mi Calm Calm - N/A   Mostly Cloudy
7:56 PM 72.0 °F 57.0 °F 59% 30.14 in 10.0 mi ENE 3.5 mph - N/A   Mostly Cloudy
8:56 PM 71.1 °F 55.9 °F 59% 30.15 in 10.0 mi East 4.6 mph - N/A   Mostly Cloudy
9:56 PM 68.0 °F 55.9 °F 65% 30.15 in 10.0 mi Calm Calm - N/A   Mostly Cloudy
10:56 PM 71.1 °F 52.0 °F 51% 30.16 in 10.0 mi East 5.8 mph - N/A   Mostly Cloudy
11:56 PM 68.0 °F 53.1 °F 59% 30.15 in 10.0 mi Calm Calm - N/A   Clear